McGuire AFB, NJ

12:40 AM EDT on March 23, 2017 (GMT -0400)
McGuire Air Force Base

Weather History for KWRI - May, 2014

Change the Weather History Date:

Tuesday, May 13, 2014

  Actual Average Record
Temperature  
Mean Temperature 60 °F -  
Max Temperature 71 °F 69 °F 87 °F (2004)
Min Temperature 51 °F 48 °F 40 °F (2013)
Degree Days  
Heating Degree Days 5    
Growing Degree Days 10 (Base 50)    
Moisture  
Dew Point 57 °F    
Average Humidity 85    
Maximum Humidity 100    
Minimum Humidity 51    
Precipitation  
Precipitation 0.00 in - - ()
Sea Level Pressure  
Sea Level Pressure 30.11 in    
Wind  
Wind Speed 5 mph (ENE)    
Max Wind Speed 20 mph    
Max Gust Speed 25 mph    
Visibility 8 miles    
Events Rain    
Averages and records for this station are not official NWS values.
T = Trace of Precipitation, MM = Missing Value Source: NWS Daily Summary

Daily Weather History Graph

Daily Weather History Graph

Search for Another Location

Airport or City:

Trip Planner

Search our weather history database for the weather conditions in past years. The results will help you decide how hot, cold, wet, or windy it might be!

Date:

Astronomy

May. 13, 2014 Rise Set
Actual Time 5:44 AM EDT 8:04 PM EDT
Civil Twilight 5:14 AM EDT 8:35 PM EDT
Nautical Twilight 4:36 AM EDT 9:13 PM EDT
Astronomical Twilight 3:55 AM EDT 9:54 PM EDT
Moon 7:03 PM EDT (5/13) 4:59 AM EDT (5/13)
Length of Visible Light 15h 21m
Length of Day
14h 20m
Waxing Gibbous, 98% of the Moon is Illuminated
May 13
Waxing Gibbous
May 14
Full
May 21
Last Quarter
May 28
New
Jun 5
First Quarter

Hourly Weather History & Observations

Time (EDT) Temp. Dew Point Humidity Pressure Visibility Wind Dir Wind Speed Gust Speed Precip Events Conditions
12:02 AM 68.0 °F 64.4 °F 88% 30.03 in 10.0 mi Calm Calm - N/A   Clear
12:58 AM 66.0 °F 65.1 °F 97% 30.05 in 10.0 mi SW 3.5 mph - 0.00 in Rain Light Rain
12:59 AM 66.2 °F 66.2 °F 100% 30.04 in 10.0 mi SW 4.6 mph - N/A   Clear
1:58 AM 66.4 °F 66.0 °F 99% 30.03 in 10.0 mi WSW 5.8 mph - 0.00 in   Clear
2:58 AM 67.1 °F 66.7 °F 99% 30.02 in 10.0 mi WSW 2.3 mph - N/A   Clear
3:52 AM 64.4 °F 64.4 °F 100% 30.02 in 9.0 mi NNW 2.3 mph - N/A   Clear
3:58 AM 64.0 °F 63.7 °F 99% 30.03 in 7.0 mi Variable 2.3 mph - N/A   Clear
4:01 AM 62.6 °F 62.6 °F 100% 30.02 in 6.0 mi NNW 2.3 mph - N/A   Clear
4:04 AM 62.6 °F 62.6 °F 100% 30.02 in 7.0 mi NNW 1.2 mph - N/A   Clear
4:10 AM 64.4 °F 64.4 °F 100% 30.02 in 10.0 mi Calm Calm - N/A   Clear
4:28 AM 64.4 °F 64.4 °F 100% 30.02 in 8.0 mi WSW 2.3 mph - N/A   Clear
4:37 AM 64.4 °F 64.4 °F 100% 30.02 in 6.0 mi Variable 1.2 mph - N/A   Clear
4:46 AM 64.4 °F 64.4 °F 100% 30.02 in 4.0 mi Calm Calm - N/A   Clear
4:49 AM 64.4 °F 64.4 °F 100% 30.02 in 2.5 mi East 2.3 mph - N/A   Clear
4:52 AM 64.4 °F 64.4 °F 100% 30.02 in 2.0 mi East 2.3 mph - N/A   Clear
4:57 AM 64.4 °F 64.4 °F 100% 30.02 in 4.0 mi East 2.3 mph - N/A Rain Light Rain
4:58 AM 64.4 °F 64.4 °F 100% 30.03 in 4.0 mi East 2.3 mph - N/A Rain Light Rain
5:01 AM 64.4 °F 64.4 °F 100% 30.02 in 5.0 mi Calm Calm - N/A Rain Light Rain
5:04 AM 64.4 °F 64.4 °F 100% 30.02 in 7.0 mi Calm Calm - N/A Rain Light Rain
5:10 AM 62.6 °F 62.6 °F 100% 30.02 in 9.0 mi Calm Calm - N/A   Clear
5:20 AM 62.6 °F 62.6 °F 100% 30.03 in 6.0 mi East 2.3 mph - N/A Rain Light Rain
5:24 AM 60.8 °F 60.8 °F 100% 30.03 in 3.0 mi East 2.3 mph - N/A   Partly Cloudy
5:27 AM 60.8 °F 60.8 °F 100% 30.03 in 3.0 mi ENE 2.3 mph - N/A   Scattered Clouds
5:30 AM 62.6 °F 62.6 °F 100% 30.03 in 3.0 mi NE 1.2 mph - N/A Rain Light Rain
5:33 AM 62.6 °F 62.6 °F 100% 30.03 in 6.0 mi Calm Calm - N/A Rain Light Rain
5:44 AM 62.6 °F 62.6 °F 100% 30.04 in 10.0 mi WSW 2.3 mph - N/A   Mostly Cloudy
5:58 AM 62.8 °F 62.8 °F 100% 30.05 in 10.0 mi Calm Calm - 0.00 in   Mostly Cloudy
6:58 AM 64.6 °F 64.6 °F 100% 30.07 in 10.0 mi Calm Calm - N/A   Mostly Cloudy
7:47 AM 68.0 °F 68.0 °F 100% 30.08 in 7.0 mi NNE 4.6 mph - N/A Rain Light Rain
7:55 AM 69.8 °F 69.8 °F 100% 30.09 in 7.0 mi NNE 5.8 mph - N/A   Scattered Clouds
7:58 AM 69.4 °F 69.3 °F 99% 30.10 in 8.0 mi NE 6.9 mph - 0.00 in   Scattered Clouds
8:58 AM 62.6 °F 55.4 °F 77% 30.14 in 10.0 mi East 12.7 mph 24.2 mph N/A   Scattered Clouds
9:58 AM 63.3 °F 49.8 °F 61% 30.18 in 10.0 mi ENE 19.6 mph 25.3 mph N/A   Clear
10:58 AM 63.3 °F 47.1 °F 56% 30.17 in 10.0 mi ENE 17.3 mph 24.2 mph N/A   Mostly Cloudy
11:58 AM 64.6 °F 46.0 °F 51% 30.20 in 10.0 mi East 17.3 mph - N/A   Mostly Cloudy
12:23 PM 66.2 °F 48.2 °F 52% 30.19 in 10.0 mi East 13.8 mph 23.0 mph N/A   Mostly Cloudy
12:58 PM 66.9 °F 48.2 °F 51% 30.20 in 10.0 mi East 11.5 mph - N/A   Scattered Clouds
1:58 PM 66.9 °F 48.6 °F 52% 30.19 in 10.0 mi East 15.0 mph 23.0 mph N/A   Partly Cloudy
1:59 PM 66.2 °F 48.2 °F 52% 30.19 in 10.0 mi ESE 11.5 mph 23.0 mph N/A   Partly Cloudy
2:33 PM 66.2 °F 48.2 °F 52% 30.19 in 10.0 mi East 12.7 mph - N/A   Scattered Clouds
2:44 PM 66.2 °F 50.0 °F 56% 30.19 in 10.0 mi ENE 12.7 mph - N/A   Partly Cloudy
2:58 PM 66.7 °F 48.7 °F 52% 30.19 in 10.0 mi ENE 15.0 mph 23.0 mph N/A   Scattered Clouds
3:58 PM 64.0 °F 48.7 °F 57% 30.19 in 10.0 mi ENE 12.7 mph - N/A   Scattered Clouds
4:58 PM 61.7 °F 48.0 °F 61% 30.20 in 10.0 mi East 13.8 mph - N/A   Partly Cloudy
5:58 PM 57.7 °F 47.5 °F 69% 30.21 in 10.0 mi East 10.4 mph 19.6 mph N/A   Clear
6:58 PM 56.7 °F 45.1 °F 65% 30.22 in 10.0 mi East 12.7 mph 24.2 mph N/A   Partly Cloudy
7:58 PM 53.8 °F 45.1 °F 73% 30.25 in 10.0 mi East 9.2 mph - N/A   Partly Cloudy
8:28 PM 53.6 °F 46.4 °F 77% 30.23 in 10.0 mi East 11.5 mph - N/A   Overcast
8:58 PM 52.5 °F 45.9 °F 78% 30.25 in 10.0 mi East 8.1 mph - N/A   Overcast
9:22 PM 51.8 °F 46.4 °F 82% 30.25 in 10.0 mi East 4.6 mph - N/A   Overcast
9:58 PM 52.3 °F 46.8 °F 81% 30.26 in 10.0 mi ENE 6.9 mph - N/A   Overcast
10:58 PM 52.2 °F 47.5 °F 84% 30.27 in 10.0 mi East 8.1 mph - N/A   Overcast
11:48 PM 51.8 °F 48.2 °F 88% 30.25 in 10.0 mi East 12.7 mph - N/A   Overcast
11:58 PM 51.8 °F 47.8 °F 86% 30.26 in 10.0 mi East 9.2 mph - N/A   Overcast